• en Belgique
  • Liste des pays
  • À 7 jours
  • Température de l'eau
  • Carte satellitaire
  • Carte météo
  • Widgets météo
  • user-avatar
    Se connecter

    Météo par heure à Grachevka

    Ce jour, 16 Octobre, Mardi

    Heure Température Précipitation Vent Pression Humidité
    00:00 +7°C° 0 mm 2 m/s 760 mmHg 67%
    01:00 +7°C° 0 mm 2 m/s 760 mmHg 72%
    02:00 +7°C° 0 mm 2 m/s 760 mmHg 77%
    03:00 +8°C° 0 mm 2 m/s 760 mmHg 82%
    04:00 +8°C° 0 mm 2 m/s 760 mmHg 85%
    05:00 +8°C° 0 mm 2 m/s 760 mmHg 89%
    06:00 +8°C° 0 mm 2 m/s 760 mmHg 92%
    07:00 +9°C° 0 mm 2 m/s 760 mmHg 90%
    08:00 +10°C° 0 mm 2 m/s 760 mmHg 89%
    09:00 +11°C° 0 mm 3 m/s 760 mmHg 87%
    10:00 +13°C° 0 mm 3 m/s 760 mmHg 80%
    11:00 +14°C° 0 mm 3 m/s 759 mmHg 73%
    12:00 +16°C° 0 mm 3 m/s 759 mmHg 65%
    13:00 +16°C° 0 mm 3 m/s 759 mmHg 63%
    14:00 +17°C° 0 mm 3 m/s 759 mmHg 60%
    15:00 +17°C° 0 mm 3 m/s 759 mmHg 57%
    16:00 +14°C° 0 mm 3 m/s 759 mmHg 63%
    17:00 +13°C° 0 mm 3 m/s 759 mmHg 69%
    18:00 +12°C° 0 mm 2 m/s 759 mmHg 74%
    19:00 +12°C° 0 mm 2 m/s 759 mmHg 77%
    20:00 +10°C° 0 mm 2 m/s 759 mmHg 80%
    21:00 +10°C° 0 mm 2 m/s 758 mmHg 82%
    22:00 +9°C° 0 mm 2 m/s 758 mmHg 84%
    23:00 +9°C° 0 mm 2 m/s 758 mmHg 85%

    Demain, 17 Octobre, Mercredi

    Heure Température Précipitation Vent Pression Humidité
    00:00 +9°C° 0 mm 2 m/s 758 mmHg 87%
    01:00 +8°C° 0 mm 3 m/s 758 mmHg 88%
    02:00 +8°C° 0 mm 3 m/s 758 mmHg 89%
    03:00 +8°C° 0 mm 3 m/s 758 mmHg 91%
    04:00 +8°C° 0 mm 3 m/s 757 mmHg 91%
    05:00 +7°C° 0 mm 3 m/s 757 mmHg 91%
    06:00 +7°C° 0 mm 3 m/s 756 mmHg 91%
    07:00 +7°C° 0 mm 4 m/s 756 mmHg 84%
    08:00 +10°C° 0 mm 4 m/s 756 mmHg 77%
    09:00 +10°C° 0 mm 5 m/s 756 mmHg 71%
    10:00 +12°C° 0 mm 5 m/s 756 mmHg 65%
    11:00 +13°C° 0 mm 5 m/s 755 mmHg 60%
    12:00 +14°C° 0 mm 6 m/s 755 mmHg 54%
    13:00 +14°C° 0 mm 6 m/s 755 mmHg 57%
    14:00 +14°C° 0 mm 6 m/s 756 mmHg 59%
    15:00 +13°C° 0 mm 6 m/s 756 mmHg 62%
    16:00 +11°C° 0 mm 6 m/s 756 mmHg 65%
    17:00 +10°C° 0 mm 6 m/s 757 mmHg 68%
    18:00 +10°C° 0 mm 6 m/s 758 mmHg 71%
    19:00 +9°C° 0 mm 6 m/s 758 mmHg 69%
    20:00 +9°C° 0 mm 6 m/s 759 mmHg 66%
    21:00 +8°C° 0 mm 5 m/s 759 mmHg 64%
    22:00 +7°C° 0 mm 5 m/s 760 mmHg 67%
    23:00 +6°C° 0 mm 4 m/s 760 mmHg 70%

    Après-demain, 18 Octobre, Jeudi

    Heure Température Précipitation Vent Pression Humidité
    00:00 +5°C° 0 mm 3 m/s 760 mmHg 74%
    01:00 +4°C° 0 mm 3 m/s 761 mmHg 76%
    02:00 +4°C° 0 mm 3 m/s 761 mmHg 78%
    03:00 +4°C° 0 mm 2 m/s 761 mmHg 80%
    04:00 +4°C° 0 mm 2 m/s 762 mmHg 81%
    05:00 +4°C° 0 mm 2 m/s 762 mmHg 83%
    06:00 +3°C° 0 mm 2 m/s 762 mmHg 85%
    07:00 +5°C° 0 mm 2 m/s 762 mmHg 79%
    08:00 +5°C° 0 mm 3 m/s 762 mmHg 73%
    09:00 +7°C° 0 mm 3 m/s 762 mmHg 68%
    10:00 +8°C° 0 mm 3 m/s 762 mmHg 61%
    11:00 +9°C° 0 mm 3 m/s 762 mmHg 55%
    12:00 +10°C° 0 mm 4 m/s 762 mmHg 49%
    13:00 +11°C° 0 mm 3 m/s 762 mmHg 49%
    14:00 +11°C° 0 mm 3 m/s 762 mmHg 48%
    15:00 +11°C° 0 mm 3 m/s 762 mmHg 48%
    16:00 +9°C° 0 mm 3 m/s 762 mmHg 53%
    17:00 +8°C° 0 mm 2 m/s 762 mmHg 57%
    18:00 +7°C° 0 mm 2 m/s 762 mmHg 62%
    19:00 +7°C° 0 mm 2 m/s 761 mmHg 63%
    20:00 +6°C° 0 mm 2 m/s 761 mmHg 64%
    21:00 +6°C° 0 mm 2 m/s 761 mmHg 65%
    22:00 +6°C° 0 mm 2 m/s 761 mmHg 66%
    23:00 +6°C° 0 mm 2 m/s 761 mmHg 67%

    19 Octobre, Vendredi

    Heure Température Précipitation Vent Pression Humidité
    00:00 +4°C° 0 mm 3 m/s 761 mmHg 68%
    01:00 +4°C° 0 mm 3 m/s 761 mmHg 69%
    02:00 +4°C° 0 mm 3 m/s 761 mmHg 70%
    03:00 +4°C° 0 mm 3 m/s 760 mmHg 71%
    04:00 +4°C° 0 mm 3 m/s 760 mmHg 73%
    05:00 +4°C° 0 mm 3 m/s 760 mmHg 74%
    06:00 +4°C° 0 mm 3 m/s 760 mmHg 76%
    07:00 +6°C° 0 mm 4 m/s 759 mmHg 73%
    08:00 +7°C° 0 mm 4 m/s 759 mmHg 70%
    09:00 +8°C° 0 mm 5 m/s 759 mmHg 68%
    10:00 +10°C° 0 mm 5 m/s 759 mmHg 65%
    11:00 +12°C° 0 mm 5 m/s 759 mmHg 62%
    12:00 +14°C° 0 mm 6 m/s 758 mmHg 59%
    13:00 +14°C° 0 mm 6 m/s 758 mmHg 59%
    14:00 +14°C° 0 mm 5 m/s 758 mmHg 59%
    15:00 +15°C° 0 mm 5 m/s 757 mmHg 59%
    16:00 +14°C° 0 mm 5 m/s 757 mmHg 64%
    17:00 +13°C° 0 mm 5 m/s 757 mmHg 69%
    18:00 +12°C° 0 mm 4 m/s 757 mmHg 73%
    19:00 +12°C° 0 mm 4 m/s 757 mmHg 73%
    20:00 +12°C° 0 mm 4 m/s 757 mmHg 73%
    21:00 +12°C° 0 mm 5 m/s 757 mmHg 73%
    22:00 +11°C° 0 mm 4 m/s 757 mmHg 73%
    23:00 +11°C° 0 mm 4 m/s 757 mmHg 74%

    20 Octobre, Samedi

    Heure Température Précipitation Vent Pression Humidité
    00:00 +11°C° 0 mm 4 m/s 757 mmHg 74%
    01:00 +11°C° 0 mm 4 m/s 757 mmHg 76%
    02:00 +10°C° 0 mm 4 m/s 757 mmHg 77%
    03:00 +10°C° 0 mm 4 m/s 756 mmHg 78%
    04:00 +8°C° 0 mm 4 m/s 756 mmHg 77%
    05:00 +8°C° 0 mm 5 m/s 756 mmHg 76%
    06:00 +8°C° 0 mm 5 m/s 756 mmHg 75%
    07:00 +9°C° 0 mm 5 m/s 756 mmHg 70%
    08:00 +10°C° 0 mm 5 m/s 756 mmHg 65%
    09:00 +11°C° 0 mm 6 m/s 756 mmHg 59%
    10:00 +13°C° 0 mm 6 m/s 756 mmHg 55%
    11:00 +14°C° 0 mm 6 m/s 756 mmHg 51%
    12:00 +15°C° 0 mm 6 m/s 756 mmHg 46%
    13:00 +15°C° 0 mm 5 m/s 756 mmHg 46%
    14:00 +15°C° 0 mm 5 m/s 756 mmHg 45%
    15:00 +15°C° 0 mm 5 m/s 756 mmHg 45%
    16:00 +14°C° 0 mm 4 m/s 756 mmHg 48%
    17:00 +12°C° 0 mm 3 m/s 756 mmHg 52%
    18:00 +11°C° 0 mm 3 m/s 756 mmHg 55%
    19:00 +11°C° 0 mm 3 m/s 756 mmHg 58%
    20:00 +10°C° 0 mm 2 m/s 756 mmHg 61%
    21:00 +10°C° 0 mm 2 m/s 756 mmHg 64%
    22:00 +10°C° 0 mm 2 m/s 756 mmHg 67%
    23:00 +11°C° 0 mm 1 m/s 756 mmHg 70%

    21 Octobre, Dimanche

    Heure Température Précipitation Vent Pression Humidité
    00:00 +10°C° 0 mm 1 m/s 756 mmHg 73%
    01:00 +10°C° 0 mm 1 m/s 756 mmHg 76%
    02:00 +10°C° 0 mm 1 m/s 756 mmHg 79%
    03:00 +10°C° 0 mm 1 m/s 756 mmHg 81%
    04:00 +9°C° 0 mm 1 m/s 756 mmHg 82%
    05:00 +9°C° 0 mm 1 m/s 757 mmHg 83%
    06:00 +9°C° 0 mm 1 m/s 757 mmHg 84%
    07:00 +10°C° 0 mm 1 m/s 757 mmHg 80%
    08:00 +11°C° 0 mm 1 m/s 757 mmHg 76%
    09:00 +11°C° 0 mm 1 m/s 757 mmHg 72%
    10:00 +12°C° 0 mm 1 m/s 757 mmHg 69%
    11:00 +13°C° 0 mm 1 m/s 757 mmHg 65%
    12:00 +14°C° 0 mm 2 m/s 757 mmHg 62%
    13:00 +14°C° 0 mm 2 m/s 757 mmHg 62%
    14:00 +14°C° 0 mm 1 m/s 757 mmHg 61%
    15:00 +14°C° 0 mm 1 m/s 757 mmHg 60%
    16:00 +13°C° 0 mm 2 m/s 757 mmHg 64%
    17:00 +12°C° 0 mm 2 m/s 757 mmHg 68%
    18:00 +10°C° 0 mm 2 m/s 757 mmHg 72%
    19:00 +10°C° 0 mm 2 m/s 757 mmHg 73%
    20:00 +10°C° 0 mm 2 m/s 757 mmHg 74%
    21:00 +9°C° 0 mm 2 m/s 757 mmHg 75%
    22:00 +9°C° 0 mm 2 m/s 757 mmHg 75%
    23:00 +9°C° 0 mm 2 m/s 756 mmHg 76%
    Voir plus